[[{"header":{"parameterUnit":"m.s-1","parameterCategory":1,"la1":30.2991,"la2":30.254,"lo1":-89.0895,"lo2":-89.0444,"dy":0.0017,"dx":0.0017,"nx":28,"ny":28,"refTime":"2024-08-06T03:00:00:Z","depth":0,"parameterNumber":2,"parameterNumberName":"U-component_of_WINDS"},"data":[0,0,0,0,0,0,0,0,0,0,0,0,0,0,0,0,0,0,0,0,0,0,0,0,0,0,0,0,0,0,0,0,0,0,0,0,0,0,0,0,0,0,0,0,0,0,0,0,0,0,0,0,0,0,0,0,0,0,2.1881,2.1881,0,2.1952,2.1952,2.1953,2.1931,2.1929,2.1928,2.1926,2.2002,2.2006,2.2009,0,0,0,0,0,0,0,0,0,0,0,0,0,2.1729,2.1732,2.188,2.1881,2.1882,2.1952,2.1953,2.1953,2.1931,2.1929,2.1927,2.1926,2.2001,2.2005,2.2009,0,0,0,0,0,0,0,0,0,0,0,0,0,2.1797,2.1733,2.188,2.1879,2.188,2.1951,2.1953,2.1954,2.1932,2.1929,2.1927,2.1925,2.2,2.2005,2.201,2.2087,0,0,2.2026,2.2028,0,0,0,0,0,0,0,0,2.1793,2.1803,2.1879,2.188,2.188,2.193,2.1927,2.1999,2.1932,2.1912,2.1926,2.1924,2.198,2.1987,2.2005,2.2091,2.2094,2.2026,2.2029,2.2031,2.2033,0,0,0,0,0,0,0,2.1789,2.18,2.1909,2.188,2.1881,2.1877,2.1884,2.194,2.1958,2.1914,2.1912,2.1921,2.198,2.2,2.2007,2.2095,2.2026,2.2031,2.2034,2.2036,2.2251,2.2253,0,0,0,0,0,0,2.1783,2.1796,2.1906,2.1911,2.183,2.1881,2.1889,2.1916,2.1957,2.1961,2.1923,2.1919,2.1993,2.2001,2.201,2.2105,2.2031,2.2036,2.2039,2.2248,2.2251,2.2254,0,0,0,0,0,0,2.178,2.1793,2.1904,2.1853,2.1867,2.1886,2.1917,2.1919,2.1939,2.1964,2.1968,2.194,2.1991,2.2002,2.2069,2.2107,2.2039,2.2043,2.2245,2.2249,2.2253,2.2295,0,0,0,0,0,0,2.1775,2.1792,2.1821,2.1854,2.1869,2.196,2.1919,2.1922,2.1948,2.1944,2.1981,2.1985,2.199,2.2061,2.2074,2.2113,2.2047,2.2242,2.2247,2.2252,2.229,2.23,2.2308,0,0,0,0,0,2.177,2.183,2.1822,2.1836,2.1906,2.1963,2.1972,2.1976,2.1951,2.1981,2.1997,2.1984,2.21,2.2068,2.2082,2.2124,2.2239,2.2245,2.2251,2.2286,2.2298,2.2308,0,0,0,0,0,0,2.1802,2.1834,2.1826,2.1898,2.1928,2.1959,2.1996,2.1988,2.2026,2.2021,2.2025,2.2034,2.2102,2.2119,2.2082,2.2202,2.2167,2.2176,2.2188,2.22,2.2209,2.2204,2.2052,0,0,0,0,0,2.1817,2.1859,2.1886,2.1947,2.1962,2.1977,2.2002,2.2002,2.2033,2.2046,2.2067,2.2099,2.2143,2.2172,2.2214,2.2292,2.2301,2.2328,2.2337,2.2344,2.2352,2.2397,2.241,2.2274,2.2273,2.2273,0,0,2.1849,2.1872,2.1898,2.1954,2.1977,2.2022,2.1987,2.2036,2.2071,2.2054,2.2118,2.2135,2.2171,2.2244,2.2277,2.226,2.2392,2.2351,2.2357,2.2362,2.2405,2.2418,2.2429,2.2277,2.2277,2.2276,0,0,2.1931,2.1951,2.2006,2.2029,2.2065,2.2074,2.2087,2.212,2.213,2.2194,2.2183,2.2225,2.23,2.2327,2.235,2.2443,2.2434,2.2457,2.2504,2.2548,2.2559,2.2568,2.2604,2.2616,2.2465,2.2465,2.2465,0,2.1967,2.2033,2.2035,2.2085,2.2111,2.2097,2.2153,2.2176,2.2224,2.2242,2.2222,2.2317,2.234,2.2421,2.2444,2.2462,2.2479,2.2453,2.2557,2.2566,2.2576,2.261,2.2623,2.2467,2.2467,2.2467,2.2467,0,2.2077,2.2124,2.2163,2.2209,2.2239,2.2292,2.2303,2.2333,2.2331,2.2343,2.241,2.2437,2.2485,2.2504,2.2503,2.2585,2.2574,2.2555,2.252,2.2591,2.2623,2.2636,2.2471,2.247,2.247,2.2469,0,0,2.2181,2.2227,2.2242,2.2264,2.2302,2.2339,2.2392,2.2438,2.2465,2.2498,2.2544,2.2608,2.2592,2.2619,2.262,2.2659,2.2734,2.2636,2.2637,2.2655,2.2829,2.2844,2.2859,2.2727,2.2729,2.2731,2.2827,0,2.2268,2.236,2.2364,2.2449,2.2493,2.2481,2.2528,2.2557,2.257,2.2611,2.2625,2.2672,2.2645,2.2662,2.2699,2.2717,2.2769,2.271,2.2772,2.2774,2.2765,2.2875,2.2891,2.298,2.2839,2.2841,2.2843,0,2.2382,2.2418,2.2508,2.2541,2.256,2.2602,2.2645,2.2683,2.2717,2.2724,2.2755,2.2751,2.2807,2.2769,2.2848,2.2807,2.2833,2.2846,2.2849,2.2857,2.2814,2.2888,2.3008,2.3022,2.2862,2.286,2.2859,0,2.2452,2.2523,2.2586,2.2605,2.2645,2.2675,2.2693,2.2724,2.2752,2.2791,2.281,2.2854,2.2879,2.2914,2.2924,2.2895,2.3003,2.2965,2.3013,2.3013,2.3038,2.3036,2.3166,2.3051,2.305,2.305,2.305,0,2.2549,2.2605,2.2619,2.2658,2.2721,2.2724,2.2787,2.2803,2.2831,2.2875,2.2867,2.2908,2.2917,2.296,2.2968,2.3033,2.3044,2.3053,2.3055,2.3055,2.3054,2.3073,2.3068,2.3054,2.3053,2.3052,2.3052,0,2.2639,2.2649,2.2718,2.275,2.276,2.2805,2.2833,2.2872,2.2883,2.2939,2.2952,2.2972,2.3022,2.3035,2.3095,2.3101,2.3179,2.3174,2.3168,2.3168,2.3215,2.3212,2.3363,2.3384,2.3254,2.3255,2.3256,0,2.2701,2.2744,2.2781,2.2809,2.2828,2.2873,2.2902,2.2908,2.2938,2.2981,2.3015,2.3065,2.3105,2.3187,2.3208,2.3255,2.3252,2.3302,2.3259,2.3259,2.3256,2.3254,2.3259,2.3311,2.3312,2.3313,2.3314,0,2.2812,2.2816,2.2856,2.29,2.2934,2.2969,2.3003,2.3026,2.3037,2.3072,2.3124,2.3155,2.3217,2.3268,2.3315,2.3335,2.3328,2.3327,2.3341,2.3343,2.3338,2.3344,2.3192,2.3324,2.3323,2.3322,2.3322,2.3321,2.2891,2.293,2.2962,2.3008,2.3034,2.3065,2.3104,2.312,2.3163,2.3214,2.3215,2.3272,2.3306,2.3369,2.3392,2.3438,2.3423,2.3442,2.3448,2.3453,2.3459,2.3329,2.3446,2.3446,2.3446,2.3446,2.3445,0,2.3004,2.3024,2.3066,2.3113,2.3151,2.3138,2.3175,2.3207,2.3257,2.3289,2.3329,2.339,2.3439,2.3463,2.3513,2.3545,2.3543,2.3558,2.3557,2.3562,2.3468,2.3452,2.3559,2.3559,2.3559,2.3559,2.3559,2.3559,2.3067,2.3131,2.3139,2.3217,2.3236,2.3292,2.3314,2.3344,2.337,2.3437,2.3478,2.3493,2.3523,2.3574,2.362,2.3626,2.3645,2.3663,2.3667,2.358,2.3568,2.3557,2.3542,2.3666,2.3667,2.3758,2.3759,2.3759]},{"header":{"parameterUnit":"m.s-1","parameterCategory":1,"la1":30.2991,"la2":30.254,"lo1":-89.0895,"lo2":-89.0444,"dy":0.0017,"dx":0.0017,"nx":28,"ny":28,"refTime":"2024-08-06T03:00:00:Z","depth":0,"parameterNumber":3,"parameterNumberName":"V-component_of_WINDS"},"data":[0,0,0,0,0,0,0,0,0,0,0,0,0,0,0,0,0,0,0,0,0,0,0,0,0,0,0,0,0,0,0,0,0,0,0,0,0,0,0,0,0,0,0,0,0,0,0,0,0,0,0,0,0,0,0,0,0,0,-1.3754,-1.3755,0,-1.3801,-1.3801,-1.3802,-1.3829,-1.3829,-1.3829,-1.3829,-1.3878,-1.3879,-1.388,0,0,0,0,0,0,0,0,0,0,0,0,0,-1.369,-1.3691,-1.3754,-1.3755,-1.3756,-1.3801,-1.3801,-1.3802,-1.3829,-1.3829,-1.3829,-1.3829,-1.3877,-1.3879,-1.388,0,0,0,0,0,0,0,0,0,0,0,0,0,-1.3726,-1.3692,-1.3754,-1.3774,-1.3777,-1.3801,-1.3801,-1.3802,-1.3829,-1.3829,-1.3829,-1.3829,-1.3877,-1.3879,-1.3881,-1.3889,0,0,-1.3886,-1.3887,0,0,0,0,0,0,0,0,-1.3724,-1.3728,-1.3771,-1.3773,-1.3776,-1.3809,-1.3797,-1.3831,-1.3829,-1.3809,-1.3829,-1.3829,-1.3855,-1.3859,-1.3867,-1.3891,-1.3893,-1.3886,-1.3887,-1.3888,-1.3889,0,0,0,0,0,0,0,-1.3721,-1.3726,-1.3773,-1.3771,-1.3774,-1.3781,-1.3787,-1.3803,-1.3831,-1.3811,-1.3813,-1.3818,-1.3856,-1.3865,-1.3868,-1.3894,-1.3886,-1.3888,-1.3889,-1.389,-1.3926,-1.3926,0,0,0,0,0,0,-1.3715,-1.3724,-1.3771,-1.3774,-1.3749,-1.3782,-1.3788,-1.3798,-1.383,-1.3835,-1.3818,-1.3819,-1.3862,-1.3866,-1.387,-1.3882,-1.3888,-1.389,-1.3891,-1.3927,-1.3926,-1.3926,0,0,0,0,0,0,-1.3714,-1.3719,-1.3769,-1.375,-1.3757,-1.3783,-1.3794,-1.3799,-1.3808,-1.3836,-1.3841,-1.3821,-1.3862,-1.3868,-1.3884,-1.3884,-1.3891,-1.3892,-1.3927,-1.3927,-1.3926,-1.3904,0,0,0,0,0,0,-1.3712,-1.3719,-1.3722,-1.3749,-1.3757,-1.3782,-1.3794,-1.38,-1.3811,-1.3813,-1.3841,-1.3846,-1.3863,-1.3881,-1.3885,-1.3886,-1.3894,-1.3927,-1.3927,-1.3926,-1.3905,-1.3903,-1.3902,0,0,0,0,0,-1.371,-1.3714,-1.3722,-1.3727,-1.3762,-1.3782,-1.3786,-1.3806,-1.3811,-1.3814,-1.3832,-1.3845,-1.3883,-1.3882,-1.3888,-1.3889,-1.3927,-1.3927,-1.3926,-1.3906,-1.3904,-1.3902,0,0,0,0,0,0,-1.3686,-1.3718,-1.3727,-1.3741,-1.3758,-1.3786,-1.3791,-1.3803,-1.382,-1.3821,-1.3845,-1.3851,-1.3865,-1.3879,-1.3877,-1.3898,-1.3906,-1.3907,-1.3889,-1.3887,-1.3885,-1.3882,-1.3895,0,0,0,0,0,-1.3683,-1.3696,-1.3723,-1.3732,-1.3741,-1.3764,-1.3774,-1.3787,-1.3807,-1.3814,-1.3833,-1.3852,-1.3868,-1.3878,-1.3895,-1.3907,-1.3914,-1.3911,-1.3909,-1.3908,-1.3908,-1.3915,-1.3914,-1.3926,-1.3926,-1.3926,0,0,-1.3676,-1.3694,-1.3701,-1.3728,-1.3743,-1.3757,-1.3771,-1.3784,-1.3794,-1.3817,-1.3833,-1.3847,-1.387,-1.3884,-1.3891,-1.3896,-1.3907,-1.3908,-1.3906,-1.3907,-1.3915,-1.3914,-1.3913,-1.3925,-1.3925,-1.3925,0,0,-1.3669,-1.3685,-1.3694,-1.3709,-1.3731,-1.3747,-1.3749,-1.3776,-1.3786,-1.3802,-1.3819,-1.3832,-1.3859,-1.3874,-1.3886,-1.3884,-1.3897,-1.3889,-1.3881,-1.3887,-1.3886,-1.3886,-1.3885,-1.3884,-1.3889,-1.3889,-1.3889,0,-1.3658,-1.3678,-1.3698,-1.371,-1.3721,-1.3741,-1.3751,-1.3765,-1.3792,-1.3799,-1.3804,-1.3838,-1.3855,-1.3873,-1.3872,-1.3881,-1.3884,-1.3886,-1.3885,-1.3884,-1.3884,-1.3884,-1.3883,-1.3888,-1.3888,-1.3889,-1.3889,0,-1.3662,-1.3676,-1.3681,-1.3706,-1.3717,-1.3728,-1.375,-1.376,-1.3772,-1.3787,-1.3804,-1.3824,-1.3845,-1.385,-1.3862,-1.3869,-1.3872,-1.388,-1.3889,-1.3882,-1.3882,-1.3882,-1.3887,-1.3887,-1.3888,-1.3888,0,0,-1.3643,-1.3678,-1.3679,-1.3691,-1.3717,-1.3728,-1.374,-1.376,-1.3767,-1.3785,-1.3796,-1.3818,-1.3826,-1.3839,-1.3853,-1.3859,-1.3856,-1.3867,-1.3868,-1.3864,-1.3865,-1.3858,-1.3857,-1.3865,-1.3865,-1.3865,-1.3863,0,-1.364,-1.3662,-1.368,-1.3695,-1.3708,-1.3727,-1.3737,-1.3754,-1.3769,-1.3782,-1.3798,-1.3814,-1.3823,-1.3831,-1.3838,-1.3855,-1.3857,-1.3856,-1.3875,-1.3875,-1.3868,-1.3857,-1.385,-1.3848,-1.3863,-1.3863,-1.3863,0,-1.364,-1.3656,-1.3672,-1.3697,-1.3703,-1.3712,-1.3731,-1.3743,-1.3763,-1.3773,-1.3787,-1.3802,-1.3815,-1.3822,-1.3841,-1.384,-1.3849,-1.3858,-1.3859,-1.3861,-1.3868,-1.3859,-1.3847,-1.3847,-1.3863,-1.3863,-1.3863,0,-1.3624,-1.365,-1.3663,-1.3672,-1.3701,-1.3706,-1.3719,-1.3739,-1.3749,-1.3766,-1.3773,-1.3792,-1.3802,-1.3816,-1.3835,-1.3838,-1.3852,-1.3861,-1.3861,-1.386,-1.3863,-1.3862,-1.3852,-1.3869,-1.3869,-1.3869,-1.3869,0,-1.3619,-1.3628,-1.3656,-1.3664,-1.3674,-1.3695,-1.3705,-1.3719,-1.3737,-1.3748,-1.3766,-1.3776,-1.3801,-1.3814,-1.3829,-1.3842,-1.3847,-1.3855,-1.3859,-1.3854,-1.3853,-1.386,-1.386,-1.3869,-1.3869,-1.3869,-1.3869,0,-1.3602,-1.3622,-1.3637,-1.3662,-1.3669,-1.3676,-1.3698,-1.3707,-1.3722,-1.3736,-1.374,-1.3764,-1.378,-1.3801,-1.3824,-1.3834,-1.3845,-1.3852,-1.3838,-1.3841,-1.3839,-1.3839,-1.3833,-1.3833,-1.385,-1.385,-1.385,0,-1.3598,-1.3605,-1.3631,-1.364,-1.3651,-1.3665,-1.3675,-1.3696,-1.3706,-1.3729,-1.3735,-1.3753,-1.3768,-1.3793,-1.3813,-1.383,-1.3837,-1.3833,-1.384,-1.3833,-1.3836,-1.3835,-1.3836,-1.3832,-1.3831,-1.3831,-1.3831,0,-1.3588,-1.3597,-1.3611,-1.3628,-1.364,-1.3655,-1.3671,-1.3677,-1.3701,-1.3711,-1.3728,-1.374,-1.3763,-1.378,-1.38,-1.3813,-1.3826,-1.3829,-1.383,-1.3824,-1.3816,-1.382,-1.3834,-1.3829,-1.3829,-1.3829,-1.3829,-1.3829,-1.3577,-1.3584,-1.3604,-1.3619,-1.3633,-1.3647,-1.3656,-1.3672,-1.3686,-1.3706,-1.3717,-1.3733,-1.3753,-1.3781,-1.3793,-1.3806,-1.3811,-1.3812,-1.3813,-1.3813,-1.3811,-1.3814,-1.381,-1.381,-1.381,-1.381,-1.381,0,-1.3568,-1.3581,-1.3595,-1.3616,-1.3627,-1.3638,-1.3656,-1.3665,-1.3679,-1.3696,-1.371,-1.3729,-1.3745,-1.3766,-1.3784,-1.379,-1.3796,-1.3794,-1.3794,-1.3796,-1.3806,-1.3803,-1.3788,-1.3788,-1.3788,-1.3788,-1.3788,-1.3788,-1.3564,-1.3577,-1.3588,-1.3607,-1.3621,-1.3636,-1.3645,-1.3658,-1.3671,-1.3691,-1.3705,-1.3718,-1.3736,-1.3756,-1.3771,-1.3777,-1.3783,-1.3778,-1.3786,-1.3794,-1.3796,-1.3798,-1.3795,-1.3779,-1.3779,-1.3775,-1.3775,-1.3775]}]]